Regional Weather Roundup
Issued by NWS

Home | Current Version | Previous Version | Graphics & Text | Print | Product List | Glossary On
Versions: 1 2 3 4 5 6 7 8 9 10 11 12 13 14 15 16 17 18 19 20 21 22 23 24 25 26 27 28 29 30 31 32 33 34 35 36 37 38 39 40 41 42 43 44 45 46 47 48 49 50
000
ASUS43 KFSD 242210
RWRSD

WEATHER ROUNDUP FOR SOUTH DAKOTA
NATIONAL WEATHER SERVICE SIOUX FALLS SD
500 PM CDT SUN SEP 24 2017

NOTE: "FAIR" INDICATES FEW OR NO CLOUDS BELOW 12,000 FEET WITH NO
SIGNIFICANT WEATHER AND/OR OBSTRUCTIONS TO VISIBILITY.


SDZ001>005-009-010-012>017-242300-
NORTHWEST AND NORTH CENTRAL SOUTH DAKOTA

CITY           SKY/WX    TMP DP  RH WIND       PRES   REMARKS
BUFFALO          N/A     48  41  76 N12       30.02S
FAITH            N/A     50  45  83 N12       30.05S
MOBRIDGE       CLOUDY    54  47  77 N13       30.00R
$$

SDZ012>016-024>037-041>051-057-063-072>074-242300-
SOUTHWEST AND SOUTH CENTRAL SOUTH DAKOTA

CITY           SKY/WX    TMP DP  RH WIND       PRES   REMARKS
RAPID CTY ARPT CLOUDY    52  43  71 N17G24    30.06S
PIERRE         CLOUDY    55  47  74 N16       29.99F
CUSTER         CLOUDY    42  39  89 E8        30.05S FOG
ELLSWORTH AFB  CLOUDY    50  43  77 N15       30.06
PHILIP         CLOUDY    54  46  74 N17       30.03F
PINE RIDGE     CLOUDY    50  45  83 NE7       30.05S
SPEARFISH      PTSUNNY   43  43 100 NW5       30.09S
WINNER         CLOUDY    56  49  77 NW14      30.00S
$$

SDZ004>011-016>023-039-040-242300-
NORTHEAST SOUTH DAKOTA

CITY           SKY/WX    TMP DP  RH WIND       PRES   REMARKS
ABERDEEN       CLOUDY    55  51  86 NW15      29.95S
WATERTOWN      LGT RAIN  56  55  97 W9        29.92R
BROOKINGS      CLOUDY    58  55  90 NW15      29.93R
SISSETON         N/A     58  55  90 NW15      29.89S
$$

SDZ017-020-022-023-036>040-048>070-242300-
SOUTHEAST SOUTH DAKOTA

CITY           SKY/WX    TMP DP  RH WIND       PRES   REMARKS
SIOUX FALLS    CLOUDY    63  58  83 NW12      29.92S
HURON          CLOUDY    56  53  90 NW12      29.96R
CHAMBERLAIN    CLOUDY    57  53  86 N15       29.99S
MITCHELL       CLOUDY    58  54  86 NW9       29.96S
YANKTON        LGT RAIN  57  55  94 NW9       29.96R
$$

ABBREVIATIONS USED IN REMARKS
   TC - TEMPERATURE IN CELSIUS
  WCI - WIND CHILL INDEX
   HX - HEAT INDEX
  VSB - VISIBILITY





USA.gov is the U.S. government's official web portal to all federal, state and local government web resources and services.